,,,PA_Meas_PMT16A,,PR_Meas_QMR101_102,,RH_Meas_QMH101,,SR_Meas_QMS101,,TA_Meas_QMH101,,GenWind,,GenWind,
date,time,status,PA,status,PR,status,RH,status,SR,status,TA,status,DirAvg,status,SpdAvg,
2009-09-12, 00:00:04,VALID,1005.76,VALID,0,VALID,87.0837,VALID,0,VALID,26.4297,VALID,127,VALID,0.0855469,
2009-09-12, 00:01:04,VALID,1005.77,VALID,0,VALID,87.0989,VALID,0,VALID,26.3907,VALID,127,VALID,0,
2009-09-12, 00:02:04,VALID,1005.81,VALID,0,VALID,87.2973,VALID,0,VALID,26.3713,VALID,125,VALID,0.375391,
2009-09-12, 00:03:04,VALID,1005.78,VALID,0,VALID,87.5795,VALID,0,VALID,26.3518,VALID,108,VALID,0.785937,
2009-09-12, 00:04:04,VALID,1005.81,VALID,0,VALID,87.5795,VALID,0,VALID,26.3518,VALID,76,VALID,0.186719,
2009-09-12, 00:05:04,VALID,1005.79,VALID,0,VALID,87.5948,VALID,0,VALID,26.3303,VALID,74,VALID,0.715234,
2009-09-12, 00:06:04,VALID,1005.77,VALID,0,VALID,87.5414,VALID,0,VALID,26.3108,VALID,74,VALID,0.105859,
2009-09-12, 00:07:04,VALID,1005.8,VALID,0,VALID,87.5414,VALID,0,VALID,26.2739,VALID,74,VALID,0.265234,
2009-09-12, 00:08:04,VALID,1005.78,VALID,0,VALID,87.9457,VALID,0,VALID,26.2349,VALID,74,VALID,0.521094,
2009-09-12, 00:09:04,VALID,1005.78,VALID,0,VALID,88.022,VALID,0,VALID,26.1959,VALID,74,VALID,0.283984,
2009-09-12, 00:10:04,VALID,1005.76,VALID,0,VALID,88.1822,VALID,0,VALID,26.1355,VALID,41,VALID,0,
2009-09-12, 00:11:04,VALID,1005.77,VALID,0,VALID,88.5789,VALID,0,VALID,26.1375,VALID,105,VALID,0.511328,
2009-09-12, 00:12:04,VALID,1005.75,VALID,0,VALID,88.6857,VALID,0,VALID,26.157,VALID,81,VALID,0.460938,
2009-09-12, 00:13:04,VALID,1005.77,VALID,0,VALID,88.8154,VALID,0,VALID,26.1375,VALID,82,VALID,0.373047,
2009-09-12, 00:14:04,VALID,1005.79,VALID,0,VALID,88.7391,VALID,0,VALID,26.118,VALID,82,VALID,0,
2009-09-12, 00:15:05,VALID,1005.8,VALID,0,VALID,88.9146,VALID,0,VALID,26.118,VALID,47,VALID,0.76875,
2009-09-12, 00:16:04,VALID,1005.79,VALID,0,VALID,89.2198,VALID,0,VALID,26.157,VALID,95,VALID,1.35273,
2009-09-12, 00:17:04,VALID,1005.79,VALID,0,VALID,88.9909,VALID,0,VALID,26.1745,VALID,56,VALID,0.457422,
2009-09-12, 00:18:04,VALID,1005.79,VALID,0,VALID,88.9222,VALID,0,VALID,26.194,VALID,92,VALID,0.849609,
2009-09-12, 00:19:04,VALID,1005.75,VALID,0,VALID,88.7468,VALID,0,VALID,26.2134,VALID,30,VALID,0.405469,
2009-09-12, 00:20:04,VALID,1005.74,VALID,0,VALID,88.701,VALID,0,VALID,26.1959,VALID,18,VALID,0.621484,
2009-09-12, 00:21:04,VALID,1005.71,VALID,0,VALID,88.762,VALID,0,VALID,26.1959,VALID,16,VALID,0.514063,
2009-09-12, 00:22:04,VALID,1005.67,VALID,0,VALID,88.7773,VALID,0,VALID,26.1765,VALID,29,VALID,0.548047,
2009-09-12, 00:23:04,VALID,1005.68,VALID,0,VALID,88.9833,VALID,0,VALID,26.2154,VALID,74,VALID,0.734766,
2009-09-12, 00:24:04,VALID,1005.63,VALID,0,VALID,88.9756,VALID,0,VALID,26.2154,VALID,82,VALID,0.659375,
2009-09-12, 00:25:04,VALID,1005.62,VALID,0,VALID,88.8688,VALID,0,VALID,26.2349,VALID,93,VALID,0.268359,
2009-09-12, 00:26:04,VALID,1005.61,VALID,0,VALID,88.8993,VALID,0,VALID,26.2349,VALID,92,VALID,0.441016,
2009-09-12, 00:27:04,VALID,1005.57,VALID,0,VALID,88.9375,VALID,0,VALID,26.2154,VALID,86,VALID,0.860156,
2009-09-12, 00:28:04,VALID,1005.59,VALID,0,VALID,89.0901,VALID,0,VALID,26.2329,VALID,103,VALID,1.35742,
2009-09-12, 00:29:04,VALID,1005.59,VALID,0,VALID,88.7544,VALID,0,VALID,26.2913,VALID,73,VALID,0.380078,
2009-09-12, 00:30:04,VALID,1005.61,VALID,0,VALID,88.5942,VALID,0,VALID,26.3128,VALID,81,VALID,0.494531,
2009-09-12, 00:31:04,VALID,1005.63,VALID,0,VALID,88.4569,VALID,0,VALID,26.3518,VALID,78,VALID,0.760938,
2009-09-12, 00:32:04,VALID,1005.63,VALID,0,VALID,88.3729,VALID,0,VALID,26.3498,VALID,41,VALID,0.901953,
2009-09-12, 00:33:04,VALID,1005.62,VALID,0,VALID,88.2204,VALID,0,VALID,26.4102,VALID,102,VALID,1.03125,
2009-09-12, 00:34:04,VALID,1005.6,VALID,0,VALID,88.0678,VALID,0,VALID,26.4082,VALID,49,VALID,1.00078,
2009-09-12, 00:35:04,VALID,1005.61,VALID,0,VALID,87.9152,VALID,0,VALID,26.4297,VALID,94,VALID,0.578516,
2009-09-12, 00:36:04,VALID,1005.6,VALID,0,VALID,87.8542,VALID,0,VALID,26.4082,VALID,78,VALID,1.0457,
2009-09-12, 00:37:04,VALID,1005.6,VALID,0,VALID,87.6558,VALID,0,VALID,26.5076,VALID,96,VALID,1.08594,
2009-09-12, 00:38:04,VALID,1005.62,VALID,0,VALID,87.3583,VALID,0,VALID,26.5466,VALID,71,VALID,0.698828,
2009-09-12, 00:39:04,VALID,1005.6,VALID,0,VALID,87.1371,VALID,0,VALID,26.605,VALID,79,VALID,0.5875,
2009-09-12, 00:40:04,VALID,1005.62,VALID,0,VALID,86.9464,VALID,0,VALID,26.605,VALID,17,VALID,0.571875,
2009-09-12, 00:41:04,VALID,1005.64,VALID,0,VALID,87.0608,VALID,0,VALID,26.5855,VALID,26,VALID,1.70625,
2009-09-12, 00:42:04,VALID,1005.63,VALID,0,VALID,86.9082,VALID,0,VALID,26.6245,VALID,97,VALID,1.02734,
2009-09-12, 00:43:04,VALID,1005.63,VALID,0,VALID,86.7099,VALID,0,VALID,26.6635,VALID,64,VALID,0.701172,
2009-09-12, 00:44:04,VALID,1005.6,VALID,0,VALID,86.7404,VALID,0,VALID,26.6635,VALID,65,VALID,1.14531,
2009-09-12, 00:45:04,VALID,1005.65,VALID,0,VALID,86.6183,VALID,0,VALID,26.642,VALID,36,VALID,0.557422,
2009-09-12, 00:46:04,VALID,1005.64,VALID,0,VALID,86.8014,VALID,0,VALID,26.644,VALID,70,VALID,0.551172,
2009-09-12, 00:47:04,VALID,1005.64,VALID,0,VALID,86.8548,VALID,0,VALID,26.603,VALID,81,VALID,0.625781,
2009-09-12, 00:48:04,VALID,1005.63,VALID,0,VALID,87.0074,VALID,0,VALID,26.6245,VALID,91,VALID,0.944141,
2009-09-12, 00:49:04,VALID,1005.67,VALID,0,VALID,87.1447,VALID,0,VALID,26.605,VALID,8,VALID,0.0753906,
2009-09-12, 00:50:04,VALID,1005.69,VALID,0,VALID,87.221,VALID,0,VALID,26.5855,VALID,12,VALID,0.373437,
2009-09-12, 00:51:04,VALID,1005.69,VALID,0,VALID,87.2668,VALID,0,VALID,26.5855,VALID,5,VALID,0.893359,
2009-09-12, 00:52:04,VALID,1005.69,VALID,0,VALID,87.2973,VALID,0,VALID,26.5855,VALID,116,VALID,0.705859,
2009-09-12, 00:53:04,VALID,1005.7,VALID,0,VALID,87.1828,VALID,0,VALID,26.6245,VALID,31,VALID,0.375781,
2009-09-12, 00:54:04,VALID,1005.69,VALID,0,VALID,87.0989,VALID,0,VALID,26.6225,VALID,23,VALID,0.669531,
2009-09-12, 00:55:04,VALID,1005.68,VALID,0,VALID,86.9769,VALID,0,VALID,26.683,VALID,29,VALID,0.614453,
2009-09-12, 00:56:04,VALID,1005.68,VALID,0,VALID,86.9387,VALID,0,VALID,26.6635,VALID,43,VALID,0.630469,
2009-09-12, 00:57:04,VALID,1005.67,VALID,0,VALID,86.8929,VALID,0,VALID,26.642,VALID,24,VALID,0.652734,
2009-09-12, 00:58:04,VALID,1005.65,VALID,0,VALID,86.9082,VALID,0,VALID,26.644,VALID,21,VALID,0.834375,
2009-09-12, 00:59:04,VALID,1005.66,VALID,0,VALID,86.954,VALID,0,VALID,26.6225,VALID,42,VALID,1.14648,
2009-09-12, 01:00:04,VALID,1005.65,VALID,0,VALID,87.0379,VALID,0,VALID,26.6635,VALID,6,VALID,1.19687,
2009-09-12, 01:01:04,VALID,1005.65,VALID,0,VALID,86.8395,VALID,0,VALID,26.7024,VALID,11,VALID,0.377344,
2009-09-12, 01:02:04,VALID,1005.64,VALID,0,VALID,86.7404,VALID,0,VALID,26.683,VALID,8,VALID,0.692578,
2009-09-12, 01:03:04,VALID,1005.63,VALID,0,VALID,86.809,VALID,0,VALID,26.6245,VALID,8,VALID,0.223828,
2009-09-12, 01:04:04,VALID,1005.64,VALID,0,VALID,86.9311,VALID,0,VALID,26.605,VALID,8,VALID,0.140625,
2009-09-12, 01:05:04,VALID,1005.64,VALID,0,VALID,87.0379,VALID,0,VALID,26.5661,VALID,8,VALID,0.688281,
2009-09-12, 01:06:04,VALID,1005.62,VALID,0,VALID,87.2362,VALID,0,VALID,26.5076,VALID,356,VALID,0.582031,
2009-09-12, 01:07:04,VALID,1005.62,VALID,0,VALID,87.5261,VALID,0,VALID,26.4297,VALID,353,VALID,0.779297,
2009-09-12, 01:08:04,VALID,1005.63,VALID,0,VALID,87.7779,VALID,0,VALID,26.3303,VALID,317,VALID,0.419141,
2009-09-12, 01:09:04,VALID,1005.61,VALID,0,VALID,87.9762,VALID,0,VALID,26.2544,VALID,348,VALID,0.691406,
2009-09-12, 01:10:04,VALID,1005.58,VALID,0,VALID,88.3958,VALID,0,VALID,26.1959,VALID,353,VALID,0.505859,
2009-09-12, 01:11:04,VALID,1005.56,VALID,0,VALID,88.7773,VALID,0,VALID,26.157,VALID,347,VALID,0.476953,
2009-09-12, 01:12:04,VALID,1005.55,VALID,0,VALID,89.1587,VALID,0,VALID,26.1375,VALID,352,VALID,0.666406,
2009-09-12, 01:13:04,VALID,1005.51,VALID,0,VALID,89.0367,VALID,0,VALID,26.118,VALID,354,VALID,0.446094,
2009-09-12, 01:14:04,VALID,1005.52,VALID,0,VALID,89.1892,VALID,0,VALID,26.0771,VALID,354,VALID,0.511719,
2009-09-12, 01:15:04,VALID,1005.48,VALID,0,VALID,89.296,VALID,0,VALID,26.0576,VALID,354,VALID,0.356641,
2009-09-12, 01:16:04,VALID,1005.45,VALID,0,VALID,89.7614,VALID,0,VALID,26.0791,VALID,9,VALID,0.706641,
2009-09-12, 01:17:04,VALID,1005.44,VALID,0,VALID,89.708,VALID,0,VALID,26.0771,VALID,30,VALID,0.353125,
2009-09-12, 01:18:04,VALID,1005.43,VALID,0,VALID,89.5859,VALID,0,VALID,26.0985,VALID,30,VALID,0.469141,
2009-09-12, 01:19:04,VALID,1005.42,VALID,0,VALID,89.8987,VALID,0,VALID,26.0966,VALID,55,VALID,0.788672,
2009-09-12, 01:20:04,VALID,1005.41,VALID,0,VALID,89.6088,VALID,0,VALID,26.157,VALID,24,VALID,0.488672,
2009-09-12, 01:21:04,VALID,1005.41,VALID,0,VALID,89.441,VALID,0,VALID,26.1355,VALID,35,VALID,0.392969,
2009-09-12, 01:22:04,VALID,1005.33,VALID,0,VALID,89.502,VALID,0,VALID,26.1355,VALID,23,VALID,0.560547,
2009-09-12, 01:23:04,VALID,1005.34,VALID,0,VALID,89.4257,VALID,0,VALID,26.1959,VALID,21,VALID,0.480469,
2009-09-12, 01:24:04,VALID,1005.33,VALID,0,VALID,89.4868,VALID,0,VALID,26.1745,VALID,21,VALID,0.699609,
2009-09-12, 01:25:04,VALID,1005.31,VALID,0,VALID,89.2121,VALID,0,VALID,26.2134,VALID,5,VALID,0.200391,
2009-09-12, 01:26:04,VALID,1005.29,VALID,0,VALID,88.9909,VALID,0.100563,VALID,26.2524,VALID,14,VALID,0.579687,
2009-09-12, 01:27:04,VALID,1005.28,VALID,0,VALID,88.8307,VALID,0.100563,VALID,26.2524,VALID,38,VALID,0.544141,
2009-09-12, 01:28:04,VALID,1005.28,VALID,0,VALID,88.8993,VALID,0,VALID,26.2739,VALID,18,VALID,0.810938,
2009-09-12, 01:29:04,VALID,1005.29,VALID,0,VALID,88.6857,VALID,0,VALID,26.2739,VALID,5,VALID,0.5875,
2009-09-12, 01:30:04,VALID,1005.28,VALID,0,VALID,88.9756,VALID,0,VALID,26.2739,VALID,7,VALID,0.876953,
2009-09-12, 01:31:04,VALID,1005.29,VALID,0,VALID,88.6552,VALID,0,VALID,26.3128,VALID,358,VALID,0.813281,
2009-09-12, 01:32:04,VALID,1005.28,VALID,0,VALID,88.4264,VALID,0,VALID,26.3108,VALID,339,VALID,0.876953,
2009-09-12, 01:33:04,VALID,1005.26,VALID,0,VALID,88.2127,VALID,0,VALID,26.3518,VALID,356,VALID,0.489844,
2009-09-12, 01:34:04,VALID,1005.23,VALID,0,VALID,88.2738,VALID,0,VALID,26.2739,VALID,336,VALID,1.13203,
2009-09-12, 01:35:04,VALID,1005.22,VALID,0,VALID,88.4187,VALID,0,VALID,26.2349,VALID,345,VALID,0.850391,
2009-09-12, 01:36:04,VALID,1005.24,VALID,0,VALID,88.6934,VALID,0,VALID,26.157,VALID,349,VALID,0.729688,
2009-09-12, 01:37:04,VALID,1005.22,VALID,0,VALID,88.9451,VALID,0,VALID,26.118,VALID,352,VALID,1.30117,
2009-09-12, 01:38:04,VALID,1005.21,VALID,0,VALID,89.1664,VALID,0,VALID,26.0791,VALID,39,VALID,0.634375,
2009-09-12, 01:39:04,VALID,1005.21,VALID,0,VALID,89.235,VALID,0,VALID,26.0187,VALID,3,VALID,0.532812,
2009-09-12, 01:40:04,VALID,1005.22,VALID,0,VALID,89.4486,VALID,0,VALID,25.9602,VALID,20,VALID,0.814062,
2009-09-12, 01:41:04,VALID,1005.22,VALID,0,VALID,89.9064,VALID,0,VALID,25.9213,VALID,30,VALID,0.973047,
2009-09-12, 01:42:04,VALID,1005.22,VALID,0,VALID,89.8911,VALID,0,VALID,25.9232,VALID,357,VALID,0.282422,
2009-09-12, 01:43:04,VALID,1005.2,VALID,0,VALID,89.914,VALID,0,VALID,25.8823,VALID,9,VALID,0.687891,
2009-09-12, 01:44:04,VALID,1005.18,VALID,0,VALID,89.9445,VALID,0.100563,VALID,25.8434,VALID,8,VALID,0.449609,
2009-09-12, 01:45:04,VALID,1005.16,VALID,0,VALID,90.1505,VALID,0,VALID,25.8064,VALID,11,VALID,0.489062,
2009-09-12, 01:46:04,VALID,1005.16,VALID,0,VALID,90.387,VALID,0,VALID,25.7869,VALID,20,VALID,0.719531,
2009-09-12, 01:47:04,VALID,1005.17,VALID,0,VALID,90.6769,VALID,0,VALID,25.7869,VALID,1,VALID,1.02695,
2009-09-12, 01:48:04,VALID,1005.14,VALID,0,VALID,90.7379,VALID,0,VALID,25.7869,VALID,3,VALID,0.555078,
2009-09-12, 01:49:04,VALID,1005.14,VALID,0,VALID,90.7608,VALID,0,VALID,25.7674,VALID,3,VALID,0.501172,
2009-09-12, 01:50:04,VALID,1005.11,VALID,0,VALID,90.8066,VALID,0,VALID,25.7674,VALID,3,VALID,0.444922,
2009-09-12, 01:51:04,VALID,1005.1,VALID,0,VALID,90.7608,VALID,0,VALID,25.746,VALID,22,VALID,0.540234,
2009-09-12, 01:52:04,VALID,1005.09,VALID,0,VALID,91.0049,VALID,0,VALID,25.8064,VALID,22,VALID,0.646875,
2009-09-12, 01:53:04,VALID,1005.05,VALID,0,VALID,90.8829,VALID,0,VALID,25.8434,VALID,20,VALID,0.747656,
2009-09-12, 01:54:04,VALID,1005.07,VALID,0,VALID,90.5853,VALID,0,VALID,25.9427,VALID,24,VALID,0.555469,
2009-09-12, 01:55:04,VALID,1005.04,VALID,0,VALID,90.3107,VALID,0,VALID,25.9992,VALID,22,VALID,0.932031,
2009-09-12, 01:56:04,VALID,1005.03,VALID,0,VALID,89.7309,VALID,0,VALID,26.118,VALID,4,VALID,0.526172,
2009-09-12, 01:57:04,VALID,1005.04,VALID,0,VALID,89.4105,VALID,0,VALID,26.1375,VALID,358,VALID,0.114063,
2009-09-12, 01:58:04,VALID,1005.03,VALID,0,VALID,89.3342,VALID,0,VALID,26.157,VALID,358,VALID,0.0960938,
2009-09-12, 01:59:04,VALID,1005.05,VALID,0,VALID,89.2655,VALID,0,VALID,26.157,VALID,357,VALID,0.225,
2009-09-12, 02:00:04,VALID,1005.06,VALID,0,VALID,89.296,VALID,0,VALID,26.116,VALID,357,VALID,0.0683594,
2009-09-12, 02:01:04,VALID,1005.06,VALID,0,VALID,89.4334,VALID,0,VALID,26.1765,VALID,14,VALID,0.753906,
2009-09-12, 02:02:04,VALID,1005.06,VALID,0,VALID,89.3266,VALID,0,VALID,26.1765,VALID,18,VALID,0.507813,
2009-09-12, 02:03:04,VALID,1005.07,VALID,0,VALID,89.2503,VALID,0,VALID,26.1765,VALID,357,VALID,0.392188,
2009-09-12, 02:04:04,VALID,1005.06,VALID,0,VALID,89.1664,VALID,0,VALID,26.1355,VALID,36,VALID,0.947266,
2009-09-12, 02:05:04,VALID,1005.1,VALID,0,VALID,89.0061,VALID,0,VALID,26.155,VALID,329,VALID,0.512109,
2009-09-12, 02:06:04,VALID,1005.09,VALID,0,VALID,88.8536,VALID,0,VALID,26.1959,VALID,358,VALID,0.596484,
2009-09-12, 02:07:04,VALID,1005.1,VALID,0,VALID,88.7315,VALID,0,VALID,26.2154,VALID,356,VALID,0.637109,
2009-09-12, 02:08:04,VALID,1005.12,VALID,0,VALID,88.7773,VALID,0,VALID,26.116,VALID,356,VALID,0.535937,
2009-09-12, 02:09:04,VALID,1005.14,VALID,0,VALID,89.1206,VALID,0,VALID,26.0596,VALID,6,VALID,0.896094,
2009-09-12, 02:10:04,VALID,1005.17,VALID,0,VALID,89.4181,VALID,0,VALID,26.0596,VALID,359,VALID,1.15273,
2009-09-12, 02:11:04,VALID,1005.17,VALID,0,VALID,89.1969,VALID,0,VALID,26.0381,VALID,348,VALID,0.897656,
2009-09-12, 02:12:04,VALID,1005.19,VALID,0,VALID,89.1892,VALID,0,VALID,26.0576,VALID,354,VALID,0.758594,
2009-09-12, 02:13:04,VALID,1005.18,VALID,0,VALID,89.2503,VALID,0,VALID,26.0187,VALID,355,VALID,0.369531,
2009-09-12, 02:14:04,VALID,1005.14,VALID,0,VALID,89.4181,VALID,0,VALID,26.0012,VALID,355,VALID,0.462891,
2009-09-12, 02:15:04,VALID,1005.17,VALID,0,VALID,89.5631,VALID,0,VALID,25.9622,VALID,355,VALID,0.394922,
2009-09-12, 02:16:04,VALID,1005.14,VALID,0,VALID,89.7919,VALID,0,VALID,25.9427,VALID,358,VALID,0.422266,
2009-09-12, 02:17:04,VALID,1005.13,VALID,0,VALID,89.8835,VALID,0,VALID,25.9038,VALID,358,VALID,0.657422,
2009-09-12, 02:18:04,VALID,1005.08,VALID,0,VALID,90.1123,VALID,0,VALID,25.8843,VALID,355,VALID,0.606641,
2009-09-12, 02:19:04,VALID,1005.11,VALID,0,VALID,90.0742,VALID,0,VALID,25.8843,VALID,4,VALID,0.663672,
2009-09-12, 02:20:04,VALID,1005.09,VALID,0,VALID,89.9216,VALID,0,VALID,25.9213,VALID,353,VALID,0.864844,
2009-09-12, 02:21:04,VALID,1005.12,VALID,0,VALID,89.6699,VALID,0,VALID,25.9797,VALID,17,VALID,0.761328,
2009-09-12, 02:22:04,VALID,1005.12,VALID,0,VALID,89.4028,VALID,0,VALID,26.0401,VALID,10,VALID,0.873438,
2009-09-12, 02:23:04,VALID,1005.1,VALID,0,VALID,89.296,VALID,0.100563,VALID,26.0187,VALID,355,VALID,0.716016,
2009-09-12, 02:24:04,VALID,1005.14,VALID,0,VALID,89.1892,VALID,0,VALID,26.0381,VALID,27,VALID,0.806641,
2009-09-12, 02:25:04,VALID,1005.14,VALID,0,VALID,88.8841,VALID,0,VALID,26.0966,VALID,354,VALID,0.664063,
2009-09-12, 02:26:04,VALID,1005.11,VALID,0,VALID,88.7315,VALID,0,VALID,26.116,VALID,5,VALID,0.780859,
2009-09-12, 02:27:04,VALID,1005.11,VALID,0,VALID,88.6628,VALID,0,VALID,26.116,VALID,6,VALID,0.577344,
2009-09-12, 02:28:04,VALID,1005.11,VALID,0,VALID,88.556,VALID,0,VALID,26.155,VALID,13,VALID,0.884375,
2009-09-12, 02:29:04,VALID,1005.11,VALID,0,VALID,88.4416,VALID,0,VALID,26.1765,VALID,337,VALID,0.951953,
2009-09-12, 02:30:04,VALID,1005.1,VALID,0,VALID,88.3577,VALID,0,VALID,26.1745,VALID,17,VALID,0.624219,
2009-09-12, 02:31:04,VALID,1005.1,VALID,0,VALID,88.4416,VALID,0,VALID,26.1765,VALID,61,VALID,0.519141,
2009-09-12, 02:32:04,VALID,1005.11,VALID,0,VALID,88.4645,VALID,0,VALID,26.157,VALID,53,VALID,0.254687,
2009-09-12, 02:33:04,VALID,1005.12,VALID,0,VALID,88.5179,VALID,0,VALID,26.1355,VALID,53,VALID,0.319531,
2009-09-12, 02:34:04,VALID,1005.15,VALID,0,VALID,88.5026,VALID,0,VALID,26.116,VALID,53,VALID,0.100391,
2009-09-12, 02:35:04,VALID,1005.12,VALID,0,VALID,88.4492,VALID,0,VALID,26.1765,VALID,49,VALID,0.508594,
2009-09-12, 02:36:04,VALID,1005.2,VALID,0,VALID,88.2509,VALID,0,VALID,26.2154,VALID,117,VALID,0.483984,
2009-09-12, 02:37:04,VALID,1005.2,VALID,0,VALID,88.0678,VALID,0,VALID,26.2739,VALID,118,VALID,0.285937,
2009-09-12, 02:38:04,VALID,1005.28,VALID,0,VALID,87.9534,VALID,0.100563,VALID,26.3128,VALID,100,VALID,1.16289,
2009-09-12, 02:39:04,VALID,1005.26,VALID,0,VALID,87.7626,VALID,0,VALID,26.3713,VALID,121,VALID,0.429297,
2009-09-12, 02:40:04,VALID,1005.29,VALID,0,VALID,87.5414,VALID,0,VALID,26.3907,VALID,114,VALID,0.297266,
2009-09-12, 02:41:04,VALID,1005.28,VALID,0,VALID,87.3812,VALID,0,VALID,26.3887,VALID,114,VALID,0.0390625,
2009-09-12, 02:42:04,VALID,1005.29,VALID,0,VALID,87.3659,VALID,0,VALID,26.4102,VALID,114,VALID,0.398438,
2009-09-12, 02:43:04,VALID,1005.27,VALID,0,VALID,87.3278,VALID,0,VALID,26.3907,VALID,114,VALID,0.230469,
2009-09-12, 02:44:04,VALID,1005.26,VALID,0,VALID,87.4041,VALID,0,VALID,26.3693,VALID,114,VALID,0.1125,
2009-09-12, 02:45:04,VALID,1005.23,VALID,0,VALID,87.4727,VALID,0.100563,VALID,26.3713,VALID,114,VALID,0.235156,
2009-09-12, 02:46:04,VALID,1005.2,VALID,0,VALID,87.6558,VALID,0,VALID,26.3323,VALID,114,VALID,0.288672,
2009-09-12, 02:47:04,VALID,1005.18,VALID,0,VALID,87.7779,VALID,0,VALID,26.3128,VALID,114,VALID,0,
2009-09-12, 02:48:04,VALID,1005.18,VALID,0,VALID,87.9152,VALID,0,VALID,26.2719,VALID,114,VALID,0,
2009-09-12, 02:49:04,VALID,1005.15,VALID,0,VALID,88.0831,VALID,0,VALID,26.2329,VALID,114,VALID,0,
2009-09-12, 02:50:04,VALID,1005.18,VALID,0,VALID,88.1899,VALID,0,VALID,26.1959,VALID,114,VALID,0,
2009-09-12, 02:51:04,VALID,1005.19,VALID,0,VALID,88.3806,VALID,0,VALID,26.1355,VALID,59,VALID,0.209375,
2009-09-12, 02:52:04,VALID,1005.22,VALID,0,VALID,88.5713,VALID,0,VALID,26.0596,VALID,57,VALID,0.140625,
2009-09-12, 02:53:04,VALID,1005.2,VALID,0,VALID,88.8917,VALID,0,VALID,25.9992,VALID,57,VALID,0,
2009-09-12, 02:54:04,VALID,1005.23,VALID,0,VALID,88.9985,VALID,0,VALID,25.9622,VALID,57,VALID,0.395312,
2009-09-12, 02:55:04,VALID,1005.23,VALID,0,VALID,89.2274,VALID,0.100563,VALID,25.8823,VALID,43,VALID,0.328906,
2009-09-12, 02:56:04,VALID,1005.23,VALID,0,VALID,89.4944,VALID,0,VALID,25.8239,VALID,29,VALID,0.237109,
2009-09-12, 02:57:04,VALID,1005.19,VALID,0,VALID,89.6546,VALID,0,VALID,25.8064,VALID,29,VALID,0,
2009-09-12, 02:58:04,VALID,1005.16,VALID,0,VALID,89.8377,VALID,0,VALID,25.746,VALID,29,VALID,0,
2009-09-12, 02:59:04,VALID,1005.12,VALID,0,VALID,90.0208,VALID,0,VALID,25.6876,VALID,29,VALID,0,
2009-09-12, 03:00:04,VALID,1005.1,VALID,0,VALID,90.3107,VALID,0.100563,VALID,25.6895,VALID,29,VALID,0,
2009-09-12, 03:01:04,VALID,1005.06,VALID,0,VALID,90.4175,VALID,0,VALID,25.6292,VALID,29,VALID,0,
2009-09-12, 03:02:04,VALID,1005.03,VALID,0,VALID,90.593,VALID,0,VALID,25.6116,VALID,29,VALID,0,
2009-09-12, 03:03:04,VALID,1004.99,VALID,0,VALID,90.7379,VALID,0,VALID,25.5727,VALID,26,VALID,0.585938,
2009-09-12, 03:04:04,VALID,1005.01,VALID,0,VALID,91.188,VALID,0,VALID,25.5921,VALID,352,VALID,0.555859,
2009-09-12, 03:05:04,VALID,1004.99,VALID,0,VALID,91.0736,VALID,0,VALID,25.6097,VALID,352,VALID,0.272266,
2009-09-12, 03:06:04,VALID,1004.98,VALID,0,VALID,91.0583,VALID,0,VALID,25.67,VALID,328,VALID,0.363672,
2009-09-12, 03:07:04,VALID,1004.98,VALID,0,VALID,90.9057,VALID,0,VALID,25.6506,VALID,328,VALID,0.187891,
2009-09-12, 03:08:04,VALID,1005.01,VALID,0,VALID,91.0431,VALID,0,VALID,25.6895,VALID,328,VALID,0.126172,
2009-09-12, 03:09:04,VALID,1004.98,VALID,0,VALID,90.7684,VALID,0,VALID,25.7071,VALID,328,VALID,0.191016,
2009-09-12, 03:10:04,VALID,1004.98,VALID,0,VALID,90.5014,VALID,0,VALID,25.7674,VALID,336,VALID,0.154687,
2009-09-12, 03:11:04,VALID,1004.99,VALID,0,VALID,90.3946,VALID,0,VALID,25.746,VALID,336,VALID,0.0878906,
2009-09-12, 03:12:04,VALID,1005.02,VALID,0,VALID,90.4175,VALID,0,VALID,25.746,VALID,337,VALID,0.264844,
2009-09-12, 03:13:04,VALID,1005.02,VALID,0,VALID,90.4251,VALID,0,VALID,25.746,VALID,342,VALID,0.425391,
2009-09-12, 03:14:04,VALID,1005.02,VALID,0,VALID,90.4327,VALID,0,VALID,25.7674,VALID,340,VALID,0.317187,
2009-09-12, 03:15:04,VALID,1005.07,VALID,0,VALID,90.3946,VALID,0,VALID,25.7674,VALID,340,VALID,0.269922,
2009-09-12, 03:16:04,VALID,1005.09,VALID,0,VALID,90.4327,VALID,0,VALID,25.746,VALID,340,VALID,0.689062,
2009-09-12, 03:17:04,VALID,1005.1,VALID,0,VALID,90.4251,VALID,0,VALID,25.7694,VALID,335,VALID,0.326562,
2009-09-12, 03:18:04,VALID,1005.09,VALID,0,VALID,90.3259,VALID,0,VALID,25.748,VALID,335,VALID,0.299219,
2009-09-12, 03:19:04,VALID,1005.11,VALID,0,VALID,90.5014,VALID,0,VALID,25.7285,VALID,335,VALID,0.550781,
2009-09-12, 03:20:04,VALID,1005.11,VALID,0,VALID,90.4862,VALID,0,VALID,25.709,VALID,335,VALID,0.455859,
2009-09-12, 03:21:04,VALID,1005.11,VALID,0,VALID,90.4099,VALID,0,VALID,25.6895,VALID,335,VALID,0.405469,
2009-09-12, 03:22:04,VALID,1005.09,VALID,0,VALID,90.593,VALID,0,VALID,25.6506,VALID,335,VALID,0.313672,
2009-09-12, 03:23:04,VALID,1005.09,VALID,0,VALID,90.7379,VALID,0,VALID,25.6311,VALID,335,VALID,0.192188,
2009-09-12, 03:24:04,VALID,1005.09,VALID,0,VALID,90.7455,VALID,0,VALID,25.6116,VALID,335,VALID,0.371094,
2009-09-12, 03:25:04,VALID,1005.06,VALID,0,VALID,91.0507,VALID,0,VALID,25.6311,VALID,358,VALID,0.418359,
2009-09-12, 03:26:04,VALID,1005.12,VALID,0,VALID,90.9515,VALID,0,VALID,25.67,VALID,358,VALID,0.257813,
2009-09-12, 03:27:04,VALID,1005.12,VALID,0,VALID,90.86,VALID,0,VALID,25.67,VALID,357,VALID,0.299609,
2009-09-12, 03:28:04,VALID,1005.15,VALID,0,VALID,90.7074,VALID,0,VALID,25.6486,VALID,357,VALID,0.232812,
2009-09-12, 03:29:04,VALID,1005.2,VALID,0,VALID,90.5396,VALID,0,VALID,25.6292,VALID,18,VALID,0.748047,
2009-09-12, 03:30:04,VALID,1005.2,VALID,0,VALID,90.715,VALID,0,VALID,25.6116,VALID,11,VALID,0.429297,
2009-09-12, 03:31:04,VALID,1005.23,VALID,0,VALID,90.9973,VALID,0,VALID,25.6895,VALID,345,VALID,0.570703,
2009-09-12, 03:32:04,VALID,1005.26,VALID,0,VALID,90.3488,VALID,0,VALID,25.8434,VALID,28,VALID,1.36328,
2009-09-12, 03:33:04,VALID,1005.28,VALID,0,VALID,89.3189,VALID,0.100563,VALID,25.9992,VALID,7,VALID,1.48164,
2009-09-12, 03:34:04,VALID,1005.3,VALID,0,VALID,88.0068,VALID,0,VALID,26.2134,VALID,51,VALID,0.669141,
2009-09-12, 03:35:04,VALID,1005.35,VALID,0,VALID,86.954,VALID,0,VALID,26.3108,VALID,71,VALID,1.16367,
2009-09-12, 03:36:04,VALID,1005.34,VALID,0,VALID,86.2064,VALID,0.100563,VALID,26.3887,VALID,35,VALID,0.535156,
2009-09-12, 03:37:04,VALID,1005.32,VALID,0,VALID,85.5426,VALID,0,VALID,26.4297,VALID,85,VALID,1.13594,
2009-09-12, 03:38:04,VALID,1005.3,VALID,0,VALID,85.7181,VALID,0.100563,VALID,26.4492,VALID,29,VALID,0.513281,
2009-09-12, 03:39:04,VALID,1005.33,VALID,0,VALID,85.0468,VALID,0,VALID,26.4492,VALID,21,VALID,1.03633,
2009-09-12, 03:40:04,VALID,1005.28,VALID,0,VALID,84.3907,VALID,0,VALID,26.4881,VALID,28,VALID,1.61719,
2009-09-12, 03:41:04,VALID,1005.26,VALID,0,VALID,84.1847,VALID,0,VALID,26.5641,VALID,24,VALID,1.07031,
2009-09-12, 03:42:04,VALID,1005.29,VALID,0,VALID,84.2839,VALID,0.100563,VALID,26.6245,VALID,15,VALID,1.4793,
2009-09-12, 03:43:04,VALID,1005.33,VALID,0,VALID,84.4136,VALID,0,VALID,26.605,VALID,3,VALID,0.484375,
2009-09-12, 03:44:04,VALID,1005.32,VALID,0,VALID,84.6729,VALID,0.100563,VALID,26.5835,VALID,10,VALID,1.21484,
2009-09-12, 03:45:04,VALID,1005.34,VALID,0,VALID,84.8255,VALID,0,VALID,26.5855,VALID,44,VALID,0.354297,
2009-09-12, 03:46:04,VALID,1005.37,VALID,0,VALID,85.001,VALID,0,VALID,26.5855,VALID,52,VALID,0.625391,